SJX711 RCTP-VVTS

Flight info

Callsign SJX711
Flight time 2h 52m
Altitude 40000
Route CHALI T5 PARPA A577 KABAM N892 MIGUG/K0900F400 N892 MESOX Q15 CRA W15 VETOM
Aircraft A359/H-SDE2E3GHIJ1J3J4J5LM1ORWXY/LB1D1

Departure

Time 2026-05-06 05:59
Airport Taiwan Taoyuan International Airport (RCTP)

Arrival

Time 2026-05-06 08:52
Airport Tan Son Nhat International Airport (VVTS)
Time Latitude Longitude Altitude Speed Heading
2026-05-06 05:33 25.07724 121.22805 119 ft 0 kts 140°
2026-05-06 05:49 25.07730 121.22800 119 ft 2 kts 140°
2026-05-06 05:49 25.07742 121.22789 119 ft 2 kts 140°
2026-05-06 05:49 25.07753 121.22778 119 ft 2 kts 140°
2026-05-06 05:49 25.07764 121.22768 119 ft 2 kts 143°
2026-05-06 05:50 25.07777 121.22760 119 ft 2 kts 161°
2026-05-06 05:50 25.07792 121.22756 119 ft 2 kts 176°
2026-05-06 05:50 25.07807 121.22757 119 ft 2 kts 191°
2026-05-06 05:50 25.07821 121.22762 119 ft 2 kts 206°
2026-05-06 05:51 25.07834 121.22770 119 ft 2 kts 221°
2026-05-06 05:51 25.07840 121.22777 119 ft 0 kts 229°
2026-05-06 05:51 25.07842 121.22779 119 ft 0 kts 230°
2026-05-06 05:54 25.07841 121.22778 119 ft 0 kts 230°
2026-05-06 05:54 25.07832 121.22768 119 ft 3 kts 227°
2026-05-06 05:54 25.07815 121.22746 119 ft 5 kts 227°
2026-05-06 05:55 25.07780 121.22704 119 ft 8 kts 227°
2026-05-06 05:55 25.07776 121.22636 119 ft 10 kts 302°
2026-05-06 05:55 25.07790 121.22553 119 ft 12 kts 246°
2026-05-06 05:55 25.07728 121.22467 119 ft 15 kts 229°
2026-05-06 05:56 25.07652 121.22371 119 ft 17 kts 229°
2026-05-06 05:56 25.07568 121.22263 119 ft 19 kts 229°
2026-05-06 05:56 25.07478 121.22150 119 ft 20 kts 229°
2026-05-06 05:56 25.07384 121.22031 119 ft 21 kts 229°
2026-05-06 05:57 25.07300 121.21928 119 ft 13 kts 229°
2026-05-06 05:57 25.07273 121.21846 119 ft 12 kts 292°
2026-05-06 05:57 25.07314 121.21798 119 ft 8 kts 317°
2026-05-06 05:57 25.07357 121.21751 119 ft 8 kts 317°
2026-05-06 05:58 25.07407 121.21753 119 ft 8 kts 36°
2026-05-06 05:58 25.07426 121.21773 119 ft 0 kts 49°
2026-05-06 05:58 25.07437 121.21787 119 ft 14 kts 47°
2026-05-06 05:58 25.07679 121.22097 119 ft 90 kts 49°
2026-05-06 05:59 25.08240 121.22812 120 ft 153 kts 49°
2026-05-06 05:59 25.08967 121.23741 647 ft 162 kts 49°
2026-05-06 05:59 25.09697 121.24670 1327 ft 164 kts 49°
2026-05-06 05:59 25.10443 121.25620 1981 ft 165 kts 49°
2026-05-06 06:00 25.11221 121.26613 2393 ft 176 kts 49°
2026-05-06 06:00 25.12050 121.27673 2759 ft 191 kts 49°
2026-05-06 06:00 25.12952 121.28812 3143 ft 207 kts 45°
2026-05-06 06:00 25.14248 121.29607 3497 ft 223 kts 11°
2026-05-06 06:01 25.15825 121.29414 3852 ft 243 kts 333°
2026-05-06 06:01 25.17144 121.28176 4352 ft 259 kts 311°
2026-05-06 06:01 25.18346 121.26621 4971 ft 272 kts 310°
2026-05-06 06:01 25.19573 121.25026 5777 ft 277 kts 310°
2026-05-06 06:02 25.20809 121.23436 6629 ft 280 kts 310°
2026-05-06 06:02 25.22092 121.21801 7497 ft 283 kts 311°
2026-05-06 06:02 25.23386 121.20161 8356 ft 287 kts 311°
2026-05-06 06:02 25.24692 121.18511 9209 ft 290 kts 311°
2026-05-06 06:03 25.26003 121.16824 10050 ft 294 kts 306°
2026-05-06 06:03 25.26918 121.14782 10710 ft 304 kts 283°
2026-05-06 06:03 25.27015 121.12420 11163 ft 320 kts 259°
2026-05-06 06:03 25.26175 121.10113 11585 ft 336 kts 234°
2026-05-06 06:04 25.24516 121.08243 12034 ft 351 kts 220°
2026-05-06 06:04 25.22623 121.06490 12659 ft 360 kts 219°
2026-05-06 06:04 25.20682 121.04711 13403 ft 365 kts 219°
2026-05-06 06:04 25.18741 121.02921 14153 ft 369 kts 220°
2026-05-06 06:05 25.16780 121.01098 14880 ft 373 kts 220°
2026-05-06 06:05 25.14800 120.99249 15584 ft 377 kts 220°
2026-05-06 06:05 25.12809 120.97382 16271 ft 381 kts 220°
2026-05-06 06:05 25.10785 120.95482 16950 ft 384 kts 220°
2026-05-06 06:06 25.08758 120.93577 17611 ft 388 kts 220°
2026-05-06 06:06 25.06681 120.91625 18266 ft 392 kts 220°
2026-05-06 06:06 25.04611 120.89679 18898 ft 396 kts 220°
2026-05-06 06:06 25.02525 120.87719 19515 ft 399 kts 220°
2026-05-06 06:07 25.00408 120.85731 20123 ft 403 kts 220°
2026-05-06 06:07 24.98258 120.83712 20725 ft 407 kts 220°
2026-05-06 06:07 24.96102 120.81689 21311 ft 410 kts 220°
2026-05-06 06:07 24.93937 120.79658 21882 ft 414 kts 220°
2026-05-06 06:08 24.91745 120.77603 22444 ft 418 kts 220°
2026-05-06 06:08 24.89538 120.75535 22991 ft 421 kts 220°
2026-05-06 06:08 24.87291 120.73440 23530 ft 424 kts 220°
2026-05-06 06:08 24.85048 120.71352 24048 ft 428 kts 220°
2026-05-06 06:09 24.82761 120.69220 24551 ft 431 kts 220°
2026-05-06 06:09 24.80479 120.67091 25034 ft 434 kts 220°
2026-05-06 06:09 24.78181 120.64946 25501 ft 437 kts 220°
2026-05-06 06:09 24.75862 120.62782 25954 ft 441 kts 220°
2026-05-06 06:10 24.73528 120.60603 26392 ft 444 kts 220°
2026-05-06 06:10 24.71173 120.58406 26816 ft 446 kts 220°
2026-05-06 06:10 24.68814 120.56206 27225 ft 449 kts 220°
2026-05-06 06:10 24.66431 120.53983 27625 ft 452 kts 220°
2026-05-06 06:11 24.64029 120.51746 28013 ft 455 kts 220°
2026-05-06 06:11 24.61601 120.49484 28392 ft 458 kts 220°
2026-05-06 06:11 24.59175 120.47227 28756 ft 460 kts 220°
2026-05-06 06:11 24.56736 120.44958 29109 ft 463 kts 220°
2026-05-06 06:12 24.54286 120.42679 29451 ft 465 kts 220°
2026-05-06 06:12 24.51808 120.40377 29784 ft 468 kts 220°
2026-05-06 06:12 24.49339 120.38084 30104 ft 470 kts 220°
2026-05-06 06:12 24.46865 120.35786 30414 ft 472 kts 220°
2026-05-06 06:13 24.44335 120.33433 30720 ft 474 kts 220°
2026-05-06 06:13 24.41840 120.31105 31008 ft 477 kts 220°
2026-05-06 06:13 24.39313 120.28751 31288 ft 479 kts 220°
2026-05-06 06:13 24.36781 120.26398 31561 ft 481 kts 220°
2026-05-06 06:14 24.34224 120.24028 31827 ft 483 kts 220°
2026-05-06 06:14 24.31666 120.21662 32085 ft 485 kts 220°
2026-05-06 06:14 24.29077 120.19271 32338 ft 487 kts 220°
2026-05-06 06:14 24.26498 120.16890 32582 ft 489 kts 220°
2026-05-06 06:15 24.23898 120.14505 32840 ft 490 kts 218°
2026-05-06 06:15 24.21144 120.12315 33181 ft 489 kts 213°
2026-05-06 06:15 24.18247 120.10466 33536 ft 488 kts 207°
2026-05-06 06:15 24.15165 120.08942 33876 ft 487 kts 201°
2026-05-06 06:16 24.11959 120.07778 34197 ft 486 kts 195°
2026-05-06 06:16 24.08697 120.06992 34500 ft 485 kts 189°
2026-05-06 06:16 24.05331 120.06570 34799 ft 485 kts 183°
2026-05-06 06:16 24.02000 120.06455 35093 ft 484 kts 181°
2026-05-06 06:17 23.98631 120.06413 35385 ft 484 kts 180°
2026-05-06 06:17 23.95261 120.06383 35666 ft 483 kts 180°
2026-05-06 06:17 23.91917 120.06351 35938 ft 483 kts 180°
2026-05-06 06:17 23.88593 120.06314 36202 ft 482 kts 180°
2026-05-06 06:18 23.85262 120.06272 36462 ft 482 kts 180°
2026-05-06 06:18 23.81913 120.06227 36725 ft 481 kts 180°
2026-05-06 06:18 23.78594 120.06181 36988 ft 481 kts 180°
2026-05-06 06:18 23.75280 120.06132 37247 ft 480 kts 181°
2026-05-06 06:19 23.71951 120.06084 37493 ft 479 kts 181°
2026-05-06 06:19 23.68633 120.06035 37720 ft 479 kts 181°
2026-05-06 06:19 23.65313 120.05986 37933 ft 479 kts 181°
2026-05-06 06:19 23.62000 120.05936 38135 ft 479 kts 181°
2026-05-06 06:20 23.58668 120.05888 38312 ft 480 kts 181°
2026-05-06 06:20 23.55352 120.05839 38464 ft 481 kts 181°
2026-05-06 06:20 23.52008 120.05790 38607 ft 482 kts 181°
2026-05-06 06:20 23.48638 120.05740 38749 ft 483 kts 181°
2026-05-06 06:21 23.45330 120.05691 38886 ft 484 kts 181°
2026-05-06 06:21 23.41971 120.05641 39022 ft 485 kts 181°
2026-05-06 06:21 23.38610 120.05592 39153 ft 485 kts 181°
2026-05-06 06:21 23.35247 120.05542 39279 ft 486 kts 181°
2026-05-06 06:22 23.31847 120.05492 39403 ft 487 kts 181°
2026-05-06 06:22 23.28490 120.05442 39521 ft 488 kts 181°
2026-05-06 06:22 23.25100 120.05393 39637 ft 488 kts 181°
2026-05-06 06:22 23.21737 120.05343 39747 ft 489 kts 181°
2026-05-06 06:23 23.18326 120.05293 39856 ft 490 kts 181°
2026-05-06 06:23 23.14971 120.05243 39958 ft 490 kts 181°
2026-05-06 06:23 23.08137 120.05142 39969 ft 492 kts 181°
2026-05-06 06:24 23.01340 120.05042 39972 ft 492 kts 181°
2026-05-06 06:24 22.94533 120.04942 39973 ft 492 kts 181°
2026-05-06 06:25 22.87683 120.04842 39973 ft 492 kts 181°
2026-05-06 06:26 22.77508 120.04693 39973 ft 492 kts 181°
2026-05-06 06:26 22.70687 120.04594 39973 ft 492 kts 181°
2026-05-06 06:27 22.63880 120.04494 39973 ft 492 kts 181°
2026-05-06 06:27 22.57068 120.04396 39973 ft 492 kts 181°
2026-05-06 06:28 22.50236 120.04297 39973 ft 492 kts 181°
2026-05-06 06:28 22.43409 120.04198 39973 ft 492 kts 181°
2026-05-06 06:29 22.36641 120.04101 39973 ft 492 kts 181°
2026-05-06 06:29 22.29802 120.04003 39973 ft 492 kts 181°
2026-05-06 06:30 22.22987 120.03907 39973 ft 492 kts 180°
2026-05-06 06:30 22.16189 120.03812 39973 ft 492 kts 180°
2026-05-06 06:31 22.09365 120.03718 39973 ft 492 kts 181°
2026-05-06 06:31 22.02581 120.03425 39973 ft 492 kts 185°
2026-05-06 06:32 21.95791 120.02498 39973 ft 492 kts 188°
2026-05-06 06:32 21.89074 120.01468 39973 ft 492 kts 188°
2026-05-06 06:33 21.82325 120.00449 39973 ft 492 kts 188°
2026-05-06 06:33 21.75542 119.99428 39973 ft 492 kts 188°
2026-05-06 06:34 21.68832 119.98403 39973 ft 492 kts 188°
2026-05-06 06:34 21.62050 119.97364 39973 ft 492 kts 188°
2026-05-06 06:35 21.55299 119.96336 39973 ft 492 kts 188°
2026-05-06 06:35 21.48583 119.95317 39973 ft 492 kts 188°
2026-05-06 06:36 21.41810 119.94292 39973 ft 492 kts 188°
2026-05-06 06:36 21.35085 119.93275 39973 ft 492 kts 188°
2026-05-06 06:37 21.28344 119.92258 39973 ft 492 kts 188°
2026-05-06 06:37 21.21559 119.91236 39973 ft 492 kts 188°
2026-05-06 06:38 21.14853 119.90228 39973 ft 492 kts 188°
2026-05-06 06:38 21.08096 119.88993 39972 ft 492 kts 194°
2026-05-06 06:39 21.01706 119.86563 39973 ft 492 kts 205°
2026-05-06 06:39 20.95867 119.82863 39972 ft 492 kts 217°
2026-05-06 06:40 20.90744 119.78033 39974 ft 492 kts 225°
2026-05-06 06:40 20.85952 119.72857 39973 ft 492 kts 225°
2026-05-06 06:41 20.81139 119.67658 39973 ft 492 kts 225°
2026-05-06 06:41 20.76346 119.62495 39973 ft 492 kts 225°
2026-05-06 06:42 20.71557 119.57344 39973 ft 492 kts 225°
2026-05-06 06:42 20.66743 119.52173 39973 ft 492 kts 225°
2026-05-06 06:43 20.61916 119.46993 39973 ft 492 kts 225°
2026-05-06 06:43 20.57109 119.41840 39973 ft 492 kts 225°
2026-05-06 06:44 20.52300 119.36689 39973 ft 492 kts 225°
2026-05-06 06:44 20.47515 119.31554 39973 ft 492 kts 225°
2026-05-06 06:45 20.42689 119.26367 39973 ft 492 kts 225°
2026-05-06 06:45 20.37881 119.21220 39973 ft 492 kts 225°
2026-05-06 06:46 20.33075 119.16088 39973 ft 492 kts 225°
2026-05-06 06:46 20.28271 119.10967 39973 ft 492 kts 225°
2026-05-06 06:47 20.23419 119.05798 39973 ft 492 kts 225°
2026-05-06 06:47 20.18596 119.00666 39973 ft 492 kts 225°
2026-05-06 06:48 20.13773 118.95539 39973 ft 492 kts 225°
2026-05-06 06:48 20.08974 118.90443 39973 ft 491 kts 225°
2026-05-06 06:49 20.04153 118.85329 39973 ft 491 kts 225°
2026-05-06 06:49 19.99313 118.80199 39973 ft 491 kts 225°
2026-05-06 06:50 19.94499 118.75101 39973 ft 491 kts 225°
2026-05-06 06:50 19.89668 118.69990 39973 ft 491 kts 225°
2026-05-06 06:51 19.84813 118.64887 39973 ft 491 kts 225°
2026-05-06 06:51 19.79976 118.59802 39973 ft 491 kts 225°
2026-05-06 06:52 19.75149 118.54716 39973 ft 491 kts 225°
2026-05-06 06:52 19.70309 118.49615 39973 ft 491 kts 225°
2026-05-06 06:53 19.65468 118.44516 39973 ft 491 kts 225°
2026-05-06 06:53 19.60632 118.39427 39973 ft 491 kts 225°
2026-05-06 06:54 19.55811 118.34358 39973 ft 491 kts 225°
2026-05-06 06:54 19.50986 118.29262 39973 ft 491 kts 225°
2026-05-06 06:55 19.46141 118.24161 39973 ft 491 kts 224°
2026-05-06 06:55 19.41291 118.19079 39973 ft 491 kts 224°
2026-05-06 06:56 19.36455 118.14022 39973 ft 491 kts 224°
2026-05-06 06:56 19.31615 118.08954 39973 ft 491 kts 225°
2026-05-06 06:57 19.26781 118.03884 39973 ft 492 kts 225°
2026-05-06 06:57 19.21919 117.98799 39973 ft 492 kts 224°
2026-05-06 06:58 19.17062 117.93730 39973 ft 492 kts 224°
2026-05-06 06:58 19.12230 117.88696 39973 ft 492 kts 224°
2026-05-06 06:59 19.07368 117.83639 39973 ft 492 kts 224°
2026-05-06 06:59 19.02511 117.78585 39973 ft 492 kts 225°
2026-05-06 07:00 18.97654 117.73514 39973 ft 492 kts 225°
2026-05-06 07:00 18.92814 117.68470 39973 ft 492 kts 225°
2026-05-06 07:01 18.87943 117.63413 39973 ft 492 kts 224°
2026-05-06 07:01 18.83097 117.58417 39973 ft 492 kts 224°
2026-05-06 07:02 18.78216 117.53374 39973 ft 492 kts 224°
2026-05-06 07:02 18.73339 117.48328 39973 ft 492 kts 224°
2026-05-06 07:03 18.68485 117.43306 39973 ft 492 kts 224°
2026-05-06 07:03 18.63610 117.38266 39973 ft 492 kts 224°
2026-05-06 07:04 18.58760 117.33251 39973 ft 492 kts 224°
2026-05-06 07:04 18.53920 117.28223 39973 ft 492 kts 224°
2026-05-06 07:05 18.49040 117.23172 39973 ft 492 kts 224°
2026-05-06 07:05 18.44178 117.18156 39973 ft 492 kts 224°
2026-05-06 07:06 18.39294 117.13126 39973 ft 492 kts 224°
2026-05-06 07:06 18.34428 117.08119 39973 ft 492 kts 224°
2026-05-06 07:07 18.29575 117.03132 39973 ft 492 kts 224°
2026-05-06 07:07 18.24676 116.98099 39973 ft 492 kts 224°
2026-05-06 07:08 18.19813 116.93111 39973 ft 492 kts 224°
2026-05-06 07:08 18.14934 116.88108 39973 ft 492 kts 224°
2026-05-06 07:09 18.10053 116.83109 39973 ft 492 kts 224°
2026-05-06 07:09 18.05174 116.78114 39973 ft 492 kts 224°
2026-05-06 07:10 18.00279 116.73110 39973 ft 492 kts 224°
2026-05-06 07:10 17.95408 116.68134 39973 ft 492 kts 224°
2026-05-06 07:11 17.90510 116.63136 39973 ft 492 kts 224°
2026-05-06 07:11 17.85603 116.58159 39973 ft 492 kts 224°
2026-05-06 07:12 17.80726 116.53210 39973 ft 492 kts 224°
2026-05-06 07:12 17.75807 116.48199 39973 ft 492 kts 224°
2026-05-06 07:13 17.70938 116.43239 39973 ft 492 kts 224°
2026-05-06 07:13 17.66059 116.38274 39973 ft 492 kts 224°
2026-05-06 07:14 17.61162 116.33292 39973 ft 492 kts 224°
2026-05-06 07:14 17.56269 116.28291 39973 ft 492 kts 224°
2026-05-06 07:15 17.51404 116.23337 39973 ft 492 kts 224°
2026-05-06 07:15 17.46485 116.18343 39973 ft 492 kts 224°
2026-05-06 07:16 17.41584 116.13377 39973 ft 492 kts 224°
2026-05-06 07:16 17.36716 116.08449 39973 ft 492 kts 224°
2026-05-06 07:17 17.31811 116.03487 39973 ft 492 kts 224°
2026-05-06 07:17 17.26902 115.98526 39973 ft 492 kts 224°
2026-05-06 07:18 17.21981 115.93557 39973 ft 492 kts 224°
2026-05-06 07:18 17.17093 115.88625 39973 ft 492 kts 224°
2026-05-06 07:19 17.12182 115.83672 39973 ft 492 kts 224°
2026-05-06 07:19 17.07278 115.78732 39973 ft 492 kts 224°
2026-05-06 07:20 17.02381 115.73804 39973 ft 492 kts 224°
2026-05-06 07:20 16.97445 115.68838 39973 ft 492 kts 224°
2026-05-06 07:21 16.92542 115.63909 39973 ft 492 kts 224°
2026-05-06 07:21 16.87632 115.58987 39973 ft 492 kts 224°
2026-05-06 07:22 16.82701 115.54070 39973 ft 492 kts 224°
2026-05-06 07:22 16.77780 115.49151 39973 ft 492 kts 224°
2026-05-06 07:23 16.72851 115.44216 39973 ft 492 kts 224°
2026-05-06 07:23 16.67949 115.39310 39973 ft 492 kts 224°
2026-05-06 07:24 16.63038 115.34396 39973 ft 492 kts 224°
2026-05-06 07:24 16.58137 115.29466 39973 ft 492 kts 224°
2026-05-06 07:25 16.53225 115.24536 39973 ft 492 kts 224°
2026-05-06 07:25 16.48297 115.19609 39973 ft 492 kts 224°
2026-05-06 07:26 16.43387 115.14707 39973 ft 492 kts 224°
2026-05-06 07:26 16.38448 115.09783 39973 ft 492 kts 224°
2026-05-06 07:27 16.33520 115.04874 39973 ft 492 kts 224°
2026-05-06 07:27 16.28580 114.99957 39973 ft 492 kts 224°
2026-05-06 07:28 16.23648 114.95051 39973 ft 492 kts 224°
2026-05-06 07:28 16.16271 114.87721 39973 ft 492 kts 224°
2026-05-06 07:29 16.11357 114.82841 39973 ft 492 kts 224°
2026-05-06 07:29 16.06409 114.77932 39973 ft 492 kts 224°
2026-05-06 07:30 16.01469 114.73035 39973 ft 492 kts 224°
2026-05-06 07:30 15.96536 114.68148 39973 ft 492 kts 224°
2026-05-06 07:31 15.91600 114.63261 39973 ft 492 kts 224°
2026-05-06 07:31 15.86674 114.58405 39973 ft 492 kts 223°
2026-05-06 07:32 15.81718 114.53532 39973 ft 492 kts 224°
2026-05-06 07:32 15.76754 114.48641 39973 ft 492 kts 224°
2026-05-06 07:33 15.71839 114.43792 39973 ft 492 kts 224°
2026-05-06 07:33 15.66900 114.38921 39973 ft 492 kts 224°
2026-05-06 07:34 15.61947 114.34036 39973 ft 492 kts 223°
2026-05-06 07:34 15.57014 114.29146 39973 ft 492 kts 223°
2026-05-06 07:35 15.52078 114.24271 39973 ft 492 kts 223°
2026-05-06 07:35 15.47144 114.19415 39973 ft 492 kts 223°
2026-05-06 07:36 15.42194 114.14552 39973 ft 492 kts 223°
2026-05-06 07:36 15.37255 114.09708 39973 ft 492 kts 223°
2026-05-06 07:37 15.32290 114.04841 39973 ft 492 kts 223°
2026-05-06 07:37 15.27247 114.00104 39973 ft 492 kts 219°
2026-05-06 07:38 15.21802 113.95834 39973 ft 492 kts 216°
2026-05-06 07:38 15.16249 113.91724 39973 ft 492 kts 215°
2026-05-06 07:39 15.10686 113.87610 39973 ft 492 kts 216°
2026-05-06 07:39 15.05151 113.83513 39973 ft 492 kts 216°
2026-05-06 07:40 14.99594 113.79401 39973 ft 492 kts 216°
2026-05-06 07:40 14.94067 113.75312 39973 ft 492 kts 216°
2026-05-06 07:41 14.88533 113.71223 39973 ft 492 kts 215°
2026-05-06 07:41 14.82980 113.67142 39973 ft 492 kts 215°
2026-05-06 07:42 14.77417 113.63047 39973 ft 492 kts 216°
2026-05-06 07:42 14.71861 113.58950 39973 ft 492 kts 216°
2026-05-06 07:43 14.66332 113.54874 39973 ft 492 kts 216°
2026-05-06 07:43 14.60762 113.50769 39973 ft 492 kts 216°
2026-05-06 07:44 14.55237 113.46699 39973 ft 492 kts 216°
2026-05-06 07:44 14.49659 113.42594 39973 ft 492 kts 216°
2026-05-06 07:45 14.44111 113.38494 39973 ft 492 kts 216°
2026-05-06 07:45 14.38598 113.34418 39973 ft 492 kts 216°
2026-05-06 07:46 14.33062 113.30302 39973 ft 492 kts 216°
2026-05-06 07:46 14.27523 113.26199 39973 ft 492 kts 215°
2026-05-06 07:47 14.21966 113.22102 39973 ft 492 kts 215°
2026-05-06 07:47 14.16431 113.18030 39973 ft 492 kts 215°
2026-05-06 07:48 14.10888 113.13957 39973 ft 492 kts 215°
2026-05-06 07:48 14.05391 113.09809 39972 ft 492 kts 219°
2026-05-06 07:49 14.00367 113.05032 39972 ft 492 kts 227°
2026-05-06 07:49 13.96034 112.99586 39971 ft 492 kts 235°
2026-05-06 07:50 13.92483 112.93601 39972 ft 492 kts 242°
2026-05-06 07:50 13.89338 112.87404 39973 ft 492 kts 242°
2026-05-06 07:51 13.86156 112.81163 39973 ft 492 kts 242°
2026-05-06 07:51 13.82982 112.74947 39973 ft 492 kts 242°
2026-05-06 07:52 13.79813 112.68735 39973 ft 492 kts 242°
2026-05-06 07:52 13.76655 112.62543 39973 ft 492 kts 242°
2026-05-06 07:53 13.73485 112.56332 39973 ft 492 kts 242°
2026-05-06 07:53 13.70301 112.50095 39973 ft 492 kts 242°
2026-05-06 07:54 13.67126 112.43883 39973 ft 492 kts 242°
2026-05-06 07:54 13.63950 112.37672 39973 ft 492 kts 242°
2026-05-06 07:55 13.60774 112.31454 39973 ft 492 kts 242°
2026-05-06 07:55 13.57611 112.25247 39973 ft 492 kts 242°
2026-05-06 07:56 13.54439 112.19044 39973 ft 492 kts 242°
2026-05-06 07:56 13.51259 112.12839 39973 ft 492 kts 242°
2026-05-06 07:57 13.48082 112.06647 39973 ft 492 kts 242°
2026-05-06 07:57 13.44902 112.00457 39973 ft 492 kts 242°
2026-05-06 07:58 13.41705 111.94238 39973 ft 492 kts 242°
2026-05-06 07:58 13.38533 111.88071 39973 ft 492 kts 242°
2026-05-06 07:59 13.35338 111.81866 39973 ft 492 kts 242°
2026-05-06 07:59 13.32142 111.75663 39973 ft 492 kts 242°
2026-05-06 08:00 13.28960 111.69491 39973 ft 492 kts 242°
2026-05-06 08:00 13.25761 111.63292 39973 ft 492 kts 242°
2026-05-06 08:01 13.22563 111.57098 39973 ft 492 kts 242°
2026-05-06 08:01 13.19370 111.50919 39973 ft 492 kts 242°
2026-05-06 08:02 13.16169 111.44728 39973 ft 492 kts 242°
2026-05-06 08:02 13.12971 111.38549 39973 ft 492 kts 242°
2026-05-06 08:03 13.09763 111.32347 39973 ft 492 kts 242°
2026-05-06 08:03 13.06574 111.26163 39973 ft 492 kts 242°
2026-05-06 08:04 13.03392 111.20016 39973 ft 492 kts 242°
2026-05-06 08:04 13.00189 111.13841 39973 ft 492 kts 242°
2026-05-06 08:05 12.96971 111.07644 39973 ft 492 kts 242°
2026-05-06 08:05 12.93756 111.01460 39973 ft 492 kts 242°
2026-05-06 08:06 12.90550 110.95300 39973 ft 492 kts 242°
2026-05-06 08:06 12.87327 110.89149 39973 ft 492 kts 242°
2026-05-06 08:07 12.84095 110.82993 39973 ft 492 kts 242°
2026-05-06 08:07 12.80882 110.76842 39973 ft 492 kts 242°
2026-05-06 08:08 12.77661 110.70670 39973 ft 492 kts 242°
2026-05-06 08:08 12.74451 110.64522 39973 ft 492 kts 242°
2026-05-06 08:09 12.71248 110.58385 39973 ft 492 kts 242°
2026-05-06 08:09 12.68031 110.52226 39973 ft 492 kts 242°
2026-05-06 08:10 12.64812 110.46070 39973 ft 492 kts 242°
2026-05-06 08:10 12.61589 110.39912 39973 ft 492 kts 242°
2026-05-06 08:11 12.58362 110.33752 39973 ft 492 kts 242°
2026-05-06 08:11 12.55155 110.27604 39973 ft 492 kts 242°
2026-05-06 08:12 12.51930 110.21438 39973 ft 492 kts 242°
2026-05-06 08:12 12.48714 110.15306 39973 ft 492 kts 242°
2026-05-06 08:13 12.45486 110.09161 39973 ft 492 kts 242°
2026-05-06 08:13 12.42261 110.03026 39973 ft 492 kts 242°
2026-05-06 08:14 12.39039 109.96902 39973 ft 492 kts 242°
2026-05-06 08:14 12.35790 109.90731 39973 ft 492 kts 242°
2026-05-06 08:15 12.32552 109.84585 39973 ft 492 kts 242°
2026-05-06 08:15 12.29320 109.78456 39973 ft 492 kts 242°
2026-05-06 08:16 12.26091 109.72337 39973 ft 492 kts 242°
2026-05-06 08:16 12.22856 109.66212 39973 ft 492 kts 242°
2026-05-06 08:17 12.19621 109.60096 39973 ft 492 kts 242°
2026-05-06 08:17 12.16359 109.53934 39973 ft 492 kts 242°
2026-05-06 08:18 12.13134 109.47832 39973 ft 492 kts 242°
2026-05-06 08:18 12.09894 109.41675 39973 ft 492 kts 242°
2026-05-06 08:19 12.06663 109.35568 39973 ft 492 kts 242°
2026-05-06 08:19 12.03426 109.29440 39973 ft 492 kts 242°
2026-05-06 08:20 12.00442 109.23160 39972 ft 492 kts 247°
2026-05-06 08:20 11.98110 109.16637 39971 ft 492 kts 253°
2026-05-06 08:21 11.96271 109.09919 39973 ft 492 kts 255°
2026-05-06 08:21 11.94475 109.03188 39973 ft 492 kts 255°
2026-05-06 08:22 11.92681 108.96479 39973 ft 492 kts 255°
2026-05-06 08:22 11.90774 108.89809 39451 ft 490 kts 253°
2026-05-06 08:23 11.89768 108.86468 38475 ft 497 kts 253°
2026-05-06 08:23 11.88775 108.83095 37475 ft 503 kts 253°
2026-05-06 08:23 11.87804 108.79707 36601 ft 505 kts 254°
2026-05-06 08:23 11.86821 108.76238 35766 ft 506 kts 254°
2026-05-06 08:24 11.85853 108.72806 34934 ft 507 kts 254°
2026-05-06 08:24 11.84881 108.69361 34070 ft 508 kts 254°
2026-05-06 08:24 11.83907 108.65915 33042 ft 508 kts 254°
2026-05-06 08:24 11.82937 108.62476 32022 ft 512 kts 254°
2026-05-06 08:25 11.81965 108.58995 31346 ft 507 kts 254°
2026-05-06 08:25 11.81018 108.55589 30725 ft 502 kts 254°
2026-05-06 08:25 11.80065 108.52169 30164 ft 496 kts 254°
2026-05-06 08:25 11.79131 108.48818 29623 ft 489 kts 254°
2026-05-06 08:26 11.78217 108.45546 29127 ft 482 kts 254°
2026-05-06 08:26 11.77307 108.42292 28628 ft 476 kts 254°
2026-05-06 08:26 11.76360 108.39099 28127 ft 470 kts 251°
2026-05-06 08:26 11.75143 108.36017 27620 ft 464 kts 245°
2026-05-06 08:27 11.73655 108.33128 27118 ft 458 kts 239°
2026-05-06 08:27 11.71940 108.30438 26621 ft 453 kts 235°
2026-05-06 08:27 11.70153 108.27850 26123 ft 448 kts 234°
2026-05-06 08:27 11.68342 108.25271 25619 ft 443 kts 234°
2026-05-06 08:28 11.66577 108.22760 25123 ft 438 kts 234°
2026-05-06 08:28 11.64820 108.20251 24623 ft 433 kts 234°
2026-05-06 08:28 11.63084 108.17761 24122 ft 429 kts 234°
2026-05-06 08:28 11.61375 108.15307 23623 ft 425 kts 234°
2026-05-06 08:29 11.59675 108.12862 23122 ft 421 kts 234°
2026-05-06 08:29 11.57982 108.10425 22618 ft 418 kts 234°
2026-05-06 08:29 11.56327 108.08043 22122 ft 415 kts 234°
2026-05-06 08:29 11.54659 108.05647 21619 ft 412 kts 234°
2026-05-06 08:30 11.53021 108.03292 21121 ft 409 kts 234°
2026-05-06 08:30 11.51381 108.00939 20620 ft 405 kts 234°
2026-05-06 08:30 11.49752 107.98602 20118 ft 402 kts 234°
2026-05-06 08:30 11.48147 107.96299 19619 ft 399 kts 234°
2026-05-06 08:31 11.46555 107.94017 19121 ft 396 kts 234°
2026-05-06 08:31 11.44967 107.91740 18621 ft 393 kts 234°
2026-05-06 08:31 11.43396 107.89488 18122 ft 390 kts 234°
2026-05-06 08:31 11.41831 107.87246 17622 ft 388 kts 234°
2026-05-06 08:32 11.40289 107.85037 17125 ft 385 kts 234°
2026-05-06 08:32 11.38734 107.82810 16620 ft 382 kts 234°
2026-05-06 08:32 11.37217 107.80638 16125 ft 379 kts 234°
2026-05-06 08:32 11.35691 107.78453 15622 ft 377 kts 234°
2026-05-06 08:33 11.34178 107.76288 15122 ft 374 kts 234°
2026-05-06 08:33 11.32672 107.74133 14620 ft 372 kts 234°
2026-05-06 08:33 11.31179 107.71999 14119 ft 370 kts 234°
2026-05-06 08:33 11.29711 107.69900 13624 ft 367 kts 234°
2026-05-06 08:34 11.28232 107.67785 13121 ft 365 kts 234°
2026-05-06 08:34 11.25327 107.63631 12125 ft 360 kts 234°
2026-05-06 08:34 11.23830 107.61613 11680 ft 356 kts 231°
2026-05-06 08:35 11.22216 107.59703 11328 ft 352 kts 227°
2026-05-06 08:35 11.20512 107.57926 10978 ft 351 kts 224°
2026-05-06 08:35 11.18774 107.56197 10628 ft 350 kts 224°
2026-05-06 08:35 11.17057 107.54496 10282 ft 348 kts 224°
2026-05-06 08:36 11.15319 107.52774 9929 ft 346 kts 224°
2026-05-06 08:36 11.13616 107.51083 9581 ft 343 kts 224°
2026-05-06 08:36 11.11928 107.49405 9264 ft 336 kts 224°
2026-05-06 08:36 11.10289 107.47773 9189 ft 321 kts 224°
2026-05-06 08:37 11.08730 107.46221 9184 ft 305 kts 224°
2026-05-06 08:37 11.07258 107.44757 9134 ft 293 kts 224°
2026-05-06 08:37 11.05803 107.43308 9010 ft 289 kts 224°
2026-05-06 08:37 11.04370 107.41882 8885 ft 289 kts 224°
2026-05-06 08:38 11.02954 107.40472 8762 ft 288 kts 225°
2026-05-06 08:38 11.01689 107.38908 8633 ft 288 kts 238°
2026-05-06 08:38 11.00830 107.37064 8507 ft 287 kts 251°
2026-05-06 08:38 11.00240 107.35136 8384 ft 286 kts 254°
2026-05-06 08:39 10.99691 107.33176 8259 ft 286 kts 254°
2026-05-06 08:39 10.99148 107.31244 8134 ft 285 kts 253°
2026-05-06 08:39 10.98587 107.29298 8009 ft 285 kts 253°
2026-05-06 08:39 10.98021 107.27364 7884 ft 284 kts 253°
2026-05-06 08:40 10.97345 107.25491 7748 ft 284 kts 239°
2026-05-06 08:40 10.96024 107.24038 7628 ft 283 kts 212°
2026-05-06 08:40 10.94188 107.23329 7505 ft 283 kts 186°
2026-05-06 08:40 10.92237 107.23421 7392 ft 282 kts 172°
2026-05-06 08:41 10.90318 107.23728 7268 ft 282 kts 170°
2026-05-06 08:41 10.88387 107.24048 7142 ft 281 kts 172°
2026-05-06 08:41 10.86447 107.24010 6988 ft 281 kts 197°
2026-05-06 08:41 10.84764 107.23058 6846 ft 280 kts 224°
2026-05-06 08:42 10.83676 107.21422 6697 ft 279 kts 250°
2026-05-06 08:42 10.83412 107.19501 6547 ft 279 kts 274°
2026-05-06 08:42 10.83635 107.17554 6353 ft 278 kts 278°
2026-05-06 08:42 10.83912 107.15590 6110 ft 276 kts 278°
2026-05-06 08:43 10.84179 107.13674 5862 ft 272 kts 278°
2026-05-06 08:43 10.84427 107.11807 5613 ft 268 kts 277°
2026-05-06 08:43 10.84669 107.09917 5358 ft 265 kts 277°
2026-05-06 08:43 10.84899 107.08076 5111 ft 262 kts 277°
2026-05-06 08:44 10.85121 107.06268 4868 ft 259 kts 277°
2026-05-06 08:44 10.85342 107.04455 4716 ft 251 kts 277°
2026-05-06 08:44 10.85548 107.02755 4698 ft 239 kts 277°
2026-05-06 08:44 10.85747 107.01112 4666 ft 227 kts 277°
2026-05-06 08:45 10.85934 106.99560 4631 ft 215 kts 277°
2026-05-06 08:45 10.86110 106.98097 4593 ft 204 kts 277°
2026-05-06 08:45 10.86284 106.96650 4561 ft 206 kts 277°
2026-05-06 08:45 10.86457 106.95218 4511 ft 206 kts 277°
2026-05-06 08:46 10.86633 106.93761 4452 ft 206 kts 277°
2026-05-06 08:46 10.86807 106.92321 4371 ft 206 kts 277°
2026-05-06 08:46 10.86981 106.90884 4195 ft 205 kts 277°
2026-05-06 08:46 10.87194 106.89433 3943 ft 207 kts 279°
2026-05-06 08:47 10.87425 106.88010 3753 ft 204 kts 279°
2026-05-06 08:47 10.87657 106.86586 3534 ft 203 kts 279°
2026-05-06 08:47 10.87887 106.85181 3310 ft 202 kts 279°
2026-05-06 08:47 10.88118 106.83759 3083 ft 202 kts 279°
2026-05-06 08:48 10.88218 106.82351 2849 ft 201 kts 265°
2026-05-06 08:48 10.87961 106.80951 2624 ft 200 kts 253°
2026-05-06 08:48 10.87520 106.79597 2281 ft 207 kts 250°
2026-05-06 08:48 10.87003 106.78237 2105 ft 203 kts 248°
2026-05-06 08:49 10.86496 106.76932 1973 ft 195 kts 249°
2026-05-06 08:49 10.86015 106.75676 1839 ft 184 kts 249°
2026-05-06 08:49 10.85573 106.74508 1730 ft 172 kts 249°
2026-05-06 08:49 10.85155 106.73399 1509 ft 164 kts 249°
2026-05-06 08:50 10.84760 106.72349 1289 ft 156 kts 249°
2026-05-06 08:50 10.84384 106.71354 1081 ft 145 kts 249°
2026-05-06 08:50 10.84031 106.70418 891 ft 140 kts 249°
2026-05-06 08:50 10.83681 106.69492 710 ft 140 kts 249°
2026-05-06 08:51 10.83333 106.68571 528 ft 140 kts 249°
2026-05-06 08:51 10.82986 106.67648 345 ft 139 kts 249°
2026-05-06 08:51 10.82643 106.66737 161 ft 139 kts 249°
2026-05-06 08:51 10.82299 106.65831 35 ft 127 kts 250°
2026-05-06 08:52 10.82048 106.65160 37 ft 74 kts 249°
2026-05-06 08:52 10.81920 106.64824 34 ft 44 kts 249°
2026-05-06 08:52 10.81825 106.64661 33 ft 25 kts 221°
2026-05-06 08:52 10.81698 106.64554 33 ft 20 kts 221°
2026-05-06 08:53 10.81611 106.64454 31 ft 18 kts 239°
2026-05-06 08:53 10.81558 106.64347 30 ft 17 kts 243°
2026-05-06 08:53 10.81467 106.64320 30 ft 15 kts 160°
2026-05-06 08:53 10.81371 106.64357 30 ft 11 kts 159°
2026-05-06 08:54 10.81293 106.64389 30 ft 12 kts 152°
2026-05-06 08:54 10.81261 106.64468 30 ft 13 kts 81°
2026-05-06 08:54 10.81294 106.64565 30 ft 15 kts 68°
2026-05-06 08:54 10.81335 106.64673 30 ft 17 kts 68°
2026-05-06 08:55 10.81378 106.64786 30 ft 17 kts 69°
2026-05-06 08:55 10.81421 106.64899 30 ft 16 kts 69°
2026-05-06 08:55 10.81465 106.65015 30 ft 18 kts 69°
2026-05-06 08:55 10.81509 106.65134 33 ft 18 kts 69°
2026-05-06 08:56 10.81556 106.65258 33 ft 19 kts 68°
2026-05-06 08:56 10.81607 106.65391 33 ft 20 kts 69°
2026-05-06 08:56 10.81660 106.65534 33 ft 22 kts 69°
2026-05-06 08:56 10.81718 106.65688 33 ft 23 kts 69°
2026-05-06 08:57 10.81771 106.65829 33 ft 18 kts 69°
2026-05-06 08:57 10.81811 106.65936 33 ft 15 kts 68°
2026-05-06 08:57 10.81842 106.66019 33 ft 9 kts 70°
2026-05-06 08:57 10.81816 106.66065 33 ft 9 kts 170°
2026-05-06 08:58 10.81744 106.66060 33 ft 11 kts 185°
2026-05-06 08:58 10.81666 106.66053 33 ft 10 kts 186°
2026-05-06 08:58 10.81614 106.66067 33 ft 8 kts 123°
2026-05-06 08:58 10.81606 106.66105 33 ft 3 kts 96°
2026-05-06 08:59 10.81604 106.66124 33 ft 1 kts 96°
2026-05-06 08:59 10.81603 106.66129 33 ft 0 kts 96°